Location: Buckland
(65.9785°N, 161.1281°W)
Time: 18:36:25
(UTC+00:00)

Vanguard 2 Rocket - Pass Details

Date: 30 November 2020
Orbit: 554 x 3326 km, 32.9° (Epoch: 14 January)

Event Time Altitude Azimuth Distance (km) Brightness Sun altitude
Rises 18:04:22 0° 204° (SSW) 7,238 11.6 -11.1°
Reaches altitude 10° 18:13:06 10° 185° (S) 6,276 11.5 -10.4°
Maximum altitude 18:21:05 14° 161° (SSE) 5,764 11.8 -9.7°
Drops below altitude 10° 18:28:30 10° 136° (SE) 5,775 12.5 -9.1°
Sets 18:35:43 0° 115° (ESE) 6,295 13.2 -8.5°
